Tracking 19149 objects as of 20-Apr-2018
HD Live streaming from Space Station
objects crossing your sky now

COSMOS 2251 DEB

Track COSMOS 2251 DEB now!
10-day predictions


NORAD ID: 37120
Int'l Code: 1993-036BGS
Perigee: 733.5 km
Apogee: 805.2 km
Inclination: 74.0 °
Period: 100.1 minutes
Semi major axis: 7140 km
RCS: 0.0125 m2 (small)
Launch date: June 16, 1993
Source: Commonwealth of Independent States (former USSR) (CIS)
Launch site: PLESETSK MISSILE AND SPACE COMPLEX (PKMTR)

Note: This is SATELLITE DEBRIS
aabbcc
Your satellite tracking list
Your tracking list is empty




NASA's NSSDC Master Catalog

Two Line Element Set (TLE):
1 37120U 93036BGS 18107.50374602  .00001335  00000-0  43548-3 0  9997
2 37120  74.0180  41.4559 0050203  51.7483 308.8172 14.38885599432672
Source of the keplerian elements: AFSPC